Location: Chmeln�
(49.6483°N, 14.9871°E)
Time: 08:34:08
(UTC+00:00)

USA 186 - Pass Details

Date: 18 September 2020
Orbit: 261 x 425 km, 96.9° (Epoch: 12 October)

Event Time Altitude Azimuth Distance (km) Brightness Sun altitude
Exits shadow 18:49:23 13° 188° (S) 1,291 4.1 -17.0°
Maximum altitude 18:52:00 46° 261° (W) 564 2.7 -17.4°
Drops below altitude 10° 18:55:09 10° 337° (NNW) 1,512 5.2 -17.9°
Sets 18:57:15 0° 343° (NNW) 2,397 6.2 -18.2°
